Tracking 28790 objects as of 19-Apr-2024
HD Live streaming from Space Station
objects crossing your sky now

DELTA 1 DEB

Track DELTA 1 DEB now!
10-day predictions


NORAD ID: 12533
Int'l Code: 1976-077DN
Perigee: 1,419.0 km
Apogee: 1,550.9 km
Inclination: 101.7 °
Period: 115.5 minutes
Semi major axis: 7855 km
RCS: 0.0861 m2 (small)
Launch date: July 29, 1976
Source: United States (US)
Launch site: AIR FORCE WESTERN TEST RANGE (AFWTR)

Note: This is SATELLITE DEBRIS
Your satellite tracking list
Your tracking list is empty




NASA's NSSDC Master Catalog

Two Line Element Set (TLE):
1 12533U 76077DN  24109.89935940  .00000126  00000-0  11482-2 0  9991
2 12533 101.6894  84.3524 0083983 338.3200  79.0680 12.46824849 58170
Source of the keplerian elements: AFSPC